Theta_e
339 338 337 339 341 339 338 338 338 338 340 341 340 340 341 341 342 341 342 342 341 341 340 339 338 336 333 332 331 331 330 327 327 325 322 322 317 316 321 322 321 320 320 318 318 313 312 307 305 308 310 311 311 311 309 307 306 308 310 311 309 308 308
341 341 340 340 339 338 338 338 337 337 338 340 340 340 341 341 341 341 341 341 340 340 339 339 340 337 334 332 330 329 329 328 328 329 325 322 323 321 320 321 319 317 314 317 317 317 312 312 308 305 305 309 311 312 312 310 309 310 310 310 309 307 311
339 340 340 337 336 337 335 335 336 335 336 337 339 340 340 341 341 341 341 340 341 340 338 338 338 336 334 333 331 330 330 329 328 328 326 326 326 326 323 322 318 315 314 312 312 312 312 314 312 306 308 305 304 307 312 309 309 309 310 310 309 307 309
339 338 336 335 335 334 334 334 334 334 335 336 337 338 339 340 341 341 340 340 340 339 337 337 337 336 335 334 333 331 330 329 328 328 328 330 328 327 324 323 321 318 317 316 315 313 315 312 311 310 308 306 305 306 308 310 310 308 307 309 308 309 310
339 337 335 334 334 333 334 333 334 334 334 336 337 337 338 339 340 339 340 339 338 338 337 337 337 336 335 334 333 330 331 332 331 329 328 327 328 326 325 325 324 323 323 322 321 318 317 317 316 314 308 305 305 305 305 308 308 306 306 306 307 309 309
339 338 338 337 335 334 334 334 333 333 334 334 335 336 337 338 339 338 337 336 336 337 337 335 335 333 331 331 331 331 332 331 329 329 327 328 328 326 324 325 325 324 324 324 325 321 320 320 318 313 307 306 304 303 304 305 304 305 307 306 306 306 306
338 339 339 338 337 336 337 336 336 336 336 336 336 337 338 338 338 338 337 336 336 335 334 335 333 331 329 329 331 332 332 332 331 330 329 330 329 329 329 325 324 323 323 325 324 322 319 316 313 313 308 306 307 303 303 303 304 303 304 306 306 306 305
338 339 339 340 339 338 339 339 338 339 338 339 338 338 336 336 337 337 336 335 333 333 332 332 330 328 329 330 330 331 332 331 330 329 329 329 327 327 327 325 324 324 324 323 322 321 320 319 318 315 309 304 303 303 301 302 303 303 304 304 305 305 305
339 339 339 340 340 341 340 339 339 339 339 339 339 337 335 335 335 334 333 332 331 331 331 330 329 328 327 327 327 327 327 324 327 327 327 327 327 327 326 325 324 322 323 321 320 321 320 320 320 317 312 309 305 300 302 301 302 302 304 303 304 304 304
339 339 339 340 340 341 341 340 340 339 340 339 337 336 333 333 333 333 332 331 330 329 329 328 327 327 326 326 326 325 325 322 324 325 325 325 326 325 323 322 322 322 319 319 318 319 320 319 317 316 314 312 311 307 301 300 301 302 302 304 302 302 304
338 339 340 339 340 340 340 340 340 338 337 337 336 334 333 332 331 330 331 329 328 328 327 326 325 324 324 324 324 323 323 322 322 322 322 322 322 321 320 319 319 318 317 317 317 318 317 317 315 315 314 313 313 309 307 303 303 305 303 305 305 301 302
338 338 339 340 340 339 338 338 338 337 337 335 333 332 331 329 329 329 330 328 326 326 326 325 324 323 323 322 321 320 319 319 319 319 319 318 318 318 317 316 316 316 315 316 315 315 316 315 315 314 314 314 314 313 311 307 304 305 307 304 305 304 302
338 338 338 338 338 338 338 337 337 336 335 333 333 331 330 328 328 328 327 326 324 324 323 323 323 323 322 322 320 319 318 317 317 317 316 315 315 316 316 315 314 314 314 314 314 314 314 314 315 313 313 312 313 313 312 308 305 305 307 307 305 302 303
337 338 338 338 338 338 338 338 337 336 334 332 331 329 329 328 327 326 325 324 323 323 322 322 322 322 321 321 320 319 317 316 315 316 315 313 313 314 314 313 313 313 313 314 313 313 312 312 313 314 313 311 310 311 310 308 306 306 305 307 305 303 304
337 337 337 337 337 337 337 337 337 335 332 331 330 328 328 327 326 325 323 322 322 322 322 322 321 321 320 319 318 317 316 315 315 314 314 312 312 312 314 312 310 310 311 312 312 310 310 309 310 310 311 310 309 309 311 308 307 305 303 304 303 304 303
336 337 336 336 336 337 337 337 336 334 332 330 329 328 327 326 325 324 322 322 321 321 321 320 320 320 319 318 316 316 315 315 315 314 313 312 310 312 312 312 310 310 311 311 311 311 311 310 309 309 310 311 311 310 309 310 308 306 304 302 304 302 302
335 335 335 334 335 337 337 336 335 333 332 330 327 328 327 325 323 322 322 321 320 320 319 319 318 318 318 317 316 315 314 315 315 314 313 312 310 310 311 311 310 310 311 310 309 309 310 311 311 310 310 310 310 309 309 310 309 307 305 302 302 301 302
334 334 333 334 335 336 336 335 334 333 332 328 327 326 324 323 322 321 321 320 319 319 319 318 317 317 317 317 316 315 314 313 314 313 313 312 311 311 311 311 309 310 309 309 309 308 308 309 308 309 308 307 306 307 306 308 307 308 305 304 302 303 303
333 334 333 333 335 335 335 334 333 333 332 328 326 324 323 321 321 320 321 320 319 318 318 317 317 316 315 315 316 315 314 314 313 312 312 312 311 311 311 311 310 310 309 308 308 309 310 309 309 308 307 306 305 307 308 306 307 307 306 305 304 301 302
333 333 333 333 334 334 333 333 333 332 330 328 325 323 321 319 319 321 320 319 318 318 317 316 316 316 315 314 314 314 313 313 312 312 311 311 311 311 311 311 310 310 309 309 309 309 309 309 308 308 309 309 307 308 307 306 306 306 306 304 303 303 301
333 333 334 333 333 332 331 331 331 332 329 327 325 323 320 319 319 320 319 319 319 318 317 316 316 315 315 314 314 313 313 312 311 311 311 310 311 310 310 310 310 310 310 310 310 310 310 308 309 308 307 307 307 306 305 306 305 304 303 303 301 301 300
333 333 332 332 332 331 330 330 331 330 328 327 324 323 321 320 318 318 318 318 317 317 316 316 315 315 314 313 314 313 312 311 311 310 310 310 310 310 309 310 310 310 310 310 309 309 309 309 308 306 308 308 306 306 306 305 304 303 302 302 301 301 299
333 332 332 331 331 331 330 328 327 327 326 327 324 323 321 320 318 317 316 316 316 316 316 316 312 307 308 313 313 312 312 311 310 310 309 309 309 309 309 309 309 308 308 307 304 301 300 302 306 308 307 307 306 306 306 305 303 303 302 301 299 299 298
332 331 331 331 331 329 328 328 327 326 326 325 323 321 320 318 317 316 315 313 313 314 315 314 303 299 299 303 311 313 311 311 311 310 309 309 308 308 308 308 310 308 308 306 304 298 298 298 299 300 301 304 307 307 306 304 303 304 301 300 301 300 299
331 331 331 330 330 329 327 327 327 327 325 323 323 321 319 317 317 316 315 314 314 314 315 306 297 297 297 298 305 312 312 311 310 310 310 309 309 308 308 310 311 310 310 309 307 303 301 297 295 295 295 295 296 298 300 306 305 304 303 300 299 299 300
331 330 330 330 329 328 327 326 325 323 322 323 322 318 316 316 317 316 316 315 314 314 316 300 296 296 296 296 298 307 311 311 310 310 310 309 309 309 309 309 310 312 311 308 307 306 305 304 298 295 295 295 295 293 292 290 293 307 305 301 300 300 301
330 330 330 329 328 327 326 326 326 324 323 322 320 318 318 318 318 316 316 316 316 315 316 300 296 296 296 295 296 301 312 311 311 310 310 309 310 309 309 309 309 310 310 309 309 308 307 307 305 303 302 301 302 299 292 292 291 291 300 303 302 301 303
330 330 330 329 328 326 326 326 325 324 323 322 320 317 317 317 317 316 316 317 316 315 315 297 295 295 295 295 295 299 312 311 311 311 310 310 310 310 310 310 310 309 310 310 307 306 307 307 306 305 304 303 303 302 302 302 302 303 303 305 304 303 305
329 329 329 328 326 325 325 326 325 325 324 322 321 319 317 318 317 315 316 316 316 314 312 294 295 294 294 294 294 308 311 311 310 310 309 310 309 310 311 311 311 309 308 309 304 296 301 306 305 304 303 303 303 303 303 305 298 299 307 307 307 307 307
330 329 328 326 326 326 325 325 325 323 321 319 317 316 315 316 317 316 315 315 315 313 310 297 294 294 294 293 298 309 310 309 309 309 309 309 309 310 311 310 309 306 307 308 299 292 293 299 304 303 302 302 301 301 300 305 294 289 290 291 291 291 291
329 328 328 326 326 327 327 327 325 322 322 320 317 316 315 316 317 316 314 313 313 311 308 299 294 294 294 294 301 309 309 308 308 309 309 309 309 309 309 307 307 307 307 306 294 291 291 298 303 303 302 301 300 299 301 305 305 305 292 292 291 291 290
330 329 328 327 327 327 327 326 326 323 322 320 319 318 316 317 316 314 313 312 309 311 309 300 294 294 293 294 302 310 308 308 308 308 307 306 307 308 308 307 306 305 306 303 291 291 290 297 304 303 302 301 299 299 300 305 304 305 306 307 305 302 300
329 328 327 327 327 328 328 326 325 322 321 318 318 319 317 317 314 312 312 312 312 313 310 304 297 293 294 294 298 309 308 307 306 306 306 305 305 306 307 307 304 295 295 293 291 290 290 292 302 303 303 301 299 298 303 306 305 305 306 306 307 308 307
328 328 328 327 326 326 327 327 324 322 320 319 320 318 316 316 314 313 312 313 312 313 310 305 300 293 294 294 296 301 308 306 305 305 305 305 305 305 304 305 306 298 292 291 291 290 290 290 294 303 303 301 301 302 303 304 304 301 305 306 306 306 305
330 328 326 325 323 323 325 326 324 321 321 319 315 314 315 314 313 313 312 312 312 311 308 303 302 294 293 294 295 297 304 305 305 306 305 305 304 304 303 303 306 300 291 291 290 290 290 290 290 300 302 295 295 293 304 304 305 304 303 303 303 302 302
328 326 324 324 323 322 323 322 322 321 318 317 314 311 311 312 311 310 309 308 308 307 307 304 297 298 293 293 294 295 297 302 296 307 306 305 305 305 305 306 305 297 291 290 290 290 290 289 291 296 293 292 293 290 297 303 303 303 302 301 301 301 301
329 326 324 324 323 323 321 320 319 319 317 316 314 311 311 311 310 309 307 305 305 305 305 303 297 296 296 292 293 294 294 296 296 306 308 308 308 307 306 306 304 293 292 291 290 290 290 290 293 291 291 291 290 292 301 303 301 302 300 299 299 299 301
Wind_Speed
9 9 10 9 7 8 9 9 9 9 10 10 9 9 9 9 9 9 9 9 9 8 7 7 7 7 7 6 7 7 5 7 9 8 9 8 10 8 6 4 2 2 5 0 5 6 4 6 7 6 5 6 6 6 5 4 5 4 4 3 4 4 3
8 6 7 7 7 9 9 9 9 9 9 9 9 9 9 10 9 9 10 10 9 9 7 7 6 7 9 8 8 7 8 7 7 5 7 8 8 7 8 5 3 4 4 1 3 3 3 4 5 8 7 5 4 5 4 4 3 3 3 3 3 3 4
8 7 7 9 10 10 10 10 9 9 9 8 9 9 9 10 10 9 8 9 8 8 7 8 7 8 8 8 9 9 9 8 6 6 8 7 8 6 8 6 6 4 4 3 4 5 1 4 3 6 8 9 8 7 5 5 5 4 3 4 4 3 4
11 10 9 10 10 10 10 11 10 9 9 9 8 8 9 10 10 8 8 8 7 7 7 7 8 8 8 8 7 8 8 9 7 7 6 6 6 6 8 7 8 8 7 7 7 7 6 4 4 4 5 7 7 7 6 4 4 4 4 4 4 4 4
12 11 14 14 13 13 12 11 9 8 8 8 9 8 9 10 9 7 7 7 7 7 7 7 7 7 5 2 5 7 7 8 6 6 6 6 7 6 8 7 8 7 7 7 6 7 7 6 5 4 5 5 4 4 5 4 4 5 4 4 4 4 4
13 13 13 12 13 13 12 11 10 10 9 9 9 10 10 11 10 7 7 7 6 7 7 7 6 5 6 7 6 7 7 8 7 8 7 8 9 8 8 7 7 7 7 6 4 5 5 3 5 3 3 5 5 5 5 7 5 4 3 4 4 4 4
13 12 11 11 12 11 10 11 11 10 11 12 11 12 11 11 9 8 8 7 7 7 7 6 6 5 7 7 7 7 7 6 6 8 8 8 8 8 6 6 7 6 7 4 4 4 5 5 5 6 5 3 3 5 5 6 6 6 3 3 3 4 3
12 12 11 10 11 11 9 9 9 8 8 9 9 9 9 9 8 8 8 7 7 6 6 6 4 5 6 5 5 5 4 4 5 6 6 7 7 7 6 6 6 6 6 4 4 6 6 7 7 6 7 7 4 4 5 5 6 6 5 4 4 4 3
11 11 10 9 9 10 10 10 9 9 7 7 7 8 8 9 8 8 8 7 7 6 6 6 6 5 5 5 4 4 5 2 5 7 6 6 7 7 7 6 5 6 4 4 5 5 6 6 6 6 8 8 8 7 6 6 6 5 6 5 4 3 3
14 14 12 12 11 10 9 9 8 8 7 7 6 7 8 8 8 8 8 7 7 6 6 6 6 5 6 5 5 5 5 4 5 6 5 5 5 5 5 6 6 4 3 3 3 4 4 4 5 6 8 9 8 6 7 7 8 6 7 6 5 5 3
15 14 12 13 11 10 9 8 7 7 8 8 7 7 8 9 8 8 8 7 7 7 7 6 6 6 6 5 5 5 4 4 4 3 3 4 4 4 4 4 4 4 3 4 4 3 3 4 5 6 7 7 7 8 6 7 6 6 6 5 4 4 5
15 16 15 12 11 11 11 10 9 9 7 7 8 8 8 8 8 8 7 8 7 7 7 6 6 6 6 5 5 4 4 4 4 4 4 4 4 4 5 6 4 4 4 4 3 3 2 3 4 5 5 4 5 7 6 7 5 4 3 6 5 3 5
18 17 17 16 13 11 12 11 10 10 9 8 9 10 9 10 9 9 7 7 7 7 7 6 7 7 6 5 5 5 5 5 5 5 5 4 4 5 6 6 6 5 4 4 4 3 3 2 2 3 4 5 5 4 5 6 8 4 4 3 5 5 5
20 17 18 17 16 12 11 11 10 10 9 9 9 10 10 10 10 9 9 8 9 8 8 7 6 6 6 6 5 5 6 6 7 5 5 5 4 5 6 6 6 5 5 4 4 3 3 3 3 3 3 4 5 5 6 6 6 6 4 2 4 5 4
18 17 17 16 17 16 15 11 11 10 11 10 10 11 11 9 9 10 9 9 8 8 8 8 7 6 6 6 5 4 5 7 7 6 5 6 6 5 5 6 6 5 4 4 4 4 4 4 4 4 5 5 5 5 5 6 4 6 7 5 5 4 4
18 18 18 16 17 17 15 11 10 10 11 9 10 10 10 10 10 10 9 9 9 8 8 8 7 7 6 7 7 6 6 7 7 7 7 7 7 6 6 6 6 5 4 5 4 3 3 3 3 3 4 3 4 4 4 2 4 4 6 6 5 6 5
19 18 18 16 18 18 15 15 14 11 11 9 10 9 9 10 10 10 9 9 9 9 8 7 7 7 8 8 7 8 7 7 7 7 7 7 7 7 7 7 6 6 6 6 5 4 3 3 3 3 3 3 3 4 3 3 3 4 3 6 6 5 5
20 20 18 16 18 17 16 14 13 15 11 10 10 10 9 9 9 10 9 10 10 9 9 9 8 8 7 7 8 7 7 7 7 7 7 7 7 8 8 7 8 7 7 7 6 5 4 4 3 4 4 4 5 6 4 4 5 7 7 6 6 4 4
20 21 19 17 18 18 16 14 14 13 12 12 10 10 10 9 10 11 11 11 10 10 9 9 9 9 8 8 7 7 7 7 7 7 6 7 7 7 7 8 8 8 8 7 6 5 5 5 5 5 7 6 6 6 6 5 5 6 6 5 6 6 4
19 20 18 16 16 15 15 14 14 14 12 11 11 11 10 10 9 11 11 10 10 10 10 9 9 9 9 9 8 8 7 7 6 6 6 7 7 7 7 7 7 7 8 7 7 7 6 7 6 6 5 5 5 6 6 6 6 6 5 6 5 4 5
16 15 11 11 14 12 12 11 13 14 12 12 12 12 12 12 10 10 10 10 10 9 9 9 9 9 9 9 8 8 7 7 7 6 6 6 6 6 6 7 7 7 8 7 8 8 8 6 5 5 3 4 5 6 6 5 5 5 6 6 5 5 4
16 14 14 15 15 11 11 12 14 14 11 11 9 12 12 12 11 11 10 10 10 9 9 8 8 8 9 9 8 8 8 9 8 8 7 7 6 6 6 6 6 7 7 7 9 7 5 6 6 6 5 5 6 6 5 5 5 5 5 5 5 4 4
16 17 18 17 16 13 11 11 12 12 12 11 11 11 11 11 11 11 11 10 9 8 7 6 9 13 11 9 9 8 8 8 9 8 8 7 7 7 7 6 6 9 9 7 7 7 8 9 6 6 6 6 6 6 6 6 6 6 6 6 5 5 5
17 18 18 14 10 11 12 10 11 12 11 11 12 11 11 12 11 10 11 11 10 8 7 7 14 14 13 13 10 9 9 8 8 9 9 8 8 8 7 7 7 8 8 8 9 10 9 8 4 6 6 6 5 6 6 6 6 6 6 5 5 5 5
16 17 17 14 12 11 10 10 14 15 11 12 11 10 11 11 11 10 9 10 10 9 9 11 17 15 14 14 11 9 8 8 8 8 8 9 8 8 8 7 6 6 7 8 8 8 8 6 4 6 6 5 3 4 0 2 7 7 6 5 5 6 6
17 17 18 17 12 11 14 14 13 11 13 11 11 11 12 11 11 11 11 12 11 10 9 14 17 17 15 15 13 10 8 8 9 8 9 9 9 8 8 7 7 5 5 10 9 8 8 6 5 6 6 5 1 2 1 3 5 2 6 6 6 6 7
17 18 16 12 11 11 14 19 16 12 10 11 11 12 12 14 12 12 12 12 12 11 10 15 17 17 16 16 15 11 8 9 9 9 9 9 8 9 9 9 8 7 6 8 6 7 7 6 6 5 5 6 6 4 1 1 3 3 4 5 6 6 7
17 16 16 13 12 12 18 18 14 12 12 12 13 12 12 13 12 12 12 11 10 10 8 18 18 18 17 17 16 11 8 8 8 8 8 9 9 9 9 8 8 7 7 7 7 8 7 7 7 6 6 7 6 7 6 6 6 6 5 4 5 5 5
14 15 15 12 14 15 17 18 18 14 13 10 9 9 9 11 13 13 12 12 10 10 8 18 18 18 18 17 17 10 8 8 8 8 8 9 9 9 8 8 7 7 8 9 9 9 7 6 7 7 7 6 6 6 6 3 1 1 2 3 4 3 3
15 15 13 16 16 17 18 16 10 8 9 9 10 9 10 11 11 12 12 10 11 9 10 17 19 19 18 19 15 9 9 8 8 8 8 8 9 8 8 9 8 9 10 9 10 12 9 8 8 9 8 8 7 7 7 5 4 4 4 4 4 4 3
14 14 12 15 16 18 17 16 13 10 12 12 11 12 10 10 10 9 11 12 11 10 9 15 21 20 20 20 16 10 9 8 8 8 7 8 7 8 9 13 12 11 10 9 13 13 13 10 9 9 8 8 9 9 8 6 4 4 4 3 5 5 4
10 11 12 11 12 16 17 16 12 8 8 10 11 11 10 10 9 8 9 10 13 13 9 13 19 20 20 20 15 10 10 9 9 8 8 8 7 7 8 10 13 11 11 10 15 13 14 12 9 9 9 9 10 11 10 9 7 6 5 4 4 5 5
11 11 8 12 8 13 14 9 9 11 9 9 9 9 10 10 11 9 9 9 10 11 10 10 15 19 20 20 18 11 9 9 9 10 9 9 9 8 8 7 10 11 12 12 14 14 14 14 10 10 9 10 10 11 8 8 7 7 7 7 6 6 6
13 11 12 12 10 9 10 10 12 10 12 11 9 8 10 9 9 9 9 10 10 10 8 11 13 19 19 19 18 13 8 7 7 8 8 8 9 8 8 8 7 12 12 12 13 14 14 15 12 9 10 10 10 6 6 7 6 5 6 6 6 5 5
14 12 9 8 9 10 12 12 11 11 9 12 13 12 9 7 9 8 7 7 7 7 7 11 11 15 18 19 18 16 10 11 10 9 8 8 8 7 8 8 7 12 16 13 13 14 14 14 14 9 10 12 6 9 6 6 5 6 7 7 7 6 6
16 15 18 21 21 18 13 12 13 13 14 13 13 13 12 10 9 9 8 6 5 6 7 7 14 13 16 18 18 15 15 11 12 9 10 9 9 8 8 8 8 13 16 14 14 14 15 16 12 10 11 10 8 9 5 6 5 6 7 7 6 7 7
15 14 15 13 13 14 14 13 12 10 15 15 12 10 11 10 9 9 9 8 7 7 7 7 12 17 15 18 17 15 13 14 15 11 10 8 9 9 8 8 8 15 15 15 15 14 14 13 10 14 11 11 9 7 6 6 6 6 6 6 7 8 8
Wind_Direction
196 194 199 198 179 185 189 187 181 182 187 189 184 186 187 188 190 191 191 188 190 186 180 188 187 183 181 180 179 178 171 173 183 180 178 169 179 198 196 204 174 140 159 127 180 202 213 178 189 204 212 203 204 214 217 199 195 192 190 210 193 161 153
192 174 176 184 180 194 191 186 185 180 183 189 186 183 187 191 191 193 189 191 189 190 183 190 185 178 183 176 174 180 193 192 197 192 160 182 195 190 170 192 171 162 165 158 185 192 218 206 186 181 188 170 209 206 198 210 208 203 211 192 166 152 130
184 180 175 188 197 194 195 190 187 179 179 180 186 187 187 194 194 190 185 185 183 183 187 190 181 179 187 188 183 187 190 192 196 188 195 190 196 193 187 173 179 152 174 174 186 193 222 254 243 194 183 180 194 193 178 202 203 200 189 156 161 162 141
176 174 183 193 194 192 198 193 190 184 179 180 179 186 191 194 195 188 183 182 180 176 181 178 186 189 188 187 185 186 186 193 192 197 203 205 196 194 195 190 195 187 190 199 195 197 216 199 212 208 188 199 199 169 187 187 203 182 166 153 158 144 143
174 179 195 194 195 198 198 192 192 184 183 182 184 184 190 194 191 185 177 174 176 179 184 186 187 188 156 163 189 188 197 201 195 191 202 204 201 202 202 203 210 208 212 222 211 196 206 221 222 221 191 169 177 175 146 150 175 161 161 158 147 141 148
179 182 186 184 194 197 198 194 187 189 184 185 190 189 191 187 189 177 176 177 177 181 179 183 181 162 131 196 210 198 198 196 197 198 202 204 197 202 203 205 214 214 221 223 213 203 210 226 223 207 154 170 186 164 155 164 164 149 149 152 151 148 148
183 183 183 180 186 195 191 191 191 192 192 197 190 197 190 184 186 178 173 175 173 170 173 177 177 150 156 189 204 200 200 196 194 198 208 205 203 208 204 199 206 214 221 210 206 201 193 195 207 208 150 151 170 164 151 182 162 160 161 148 146 146 146
184 184 186 181 180 188 188 184 186 185 183 189 183 188 163 173 173 169 171 169 165 167 168 167 163 159 178 182 190 197 192 186 191 199 209 202 202 204 203 209 206 213 217 201 201 214 207 209 212 190 162 156 159 173 175 186 178 218 157 144 156 156 146
183 182 184 181 183 184 183 186 186 185 187 176 170 161 165 171 167 166 165 168 163 166 170 169 166 170 168 179 179 182 188 161 192 199 206 201 209 203 202 204 210 217 203 200 208 211 216 215 219 183 188 188 176 180 187 189 196 193 167 166 160 160 158
183 184 186 182 180 183 185 186 185 183 176 174 164 164 163 168 164 165 166 161 163 163 164 166 168 166 167 180 181 176 184 176 195 200 196 200 202 190 201 194 212 205 187 185 204 210 208 210 216 205 207 210 207 206 182 202 200 195 183 191 188 165 173
187 187 183 180 179 182 185 186 179 172 183 180 166 164 163 164 163 164 165 161 162 163 165 165 169 165 169 177 176 181 174 165 182 182 192 201 186 184 183 185 198 196 165 186 190 187 194 199 204 208 212 221 219 229 203 210 200 195 173 180 204 161 173
191 196 196 178 177 183 182 184 182 183 175 167 164 163 166 165 168 171 168 162 159 162 162 162 164 166 174 168 168 172 159 173 184 185 181 183 175 179 179 178 177 171 160 168 154 158 166 189 201 206 212 219 219 234 222 219 217 162 185 177 181 175 156
195 196 196 193 189 183 183 181 179 178 177 170 173 168 171 173 174 170 170 162 160 161 164 164 170 169 171 174 168 172 166 178 188 187 176 179 167 183 173 171 171 164 158 156 154 152 156 166 188 199 203 205 208 215 219 215 238 165 168 169 161 160 150
194 195 196 194 192 184 184 180 180 180 166 175 169 172 176 177 174 172 167 166 167 164 166 166 170 168 174 168 168 168 163 183 189 183 170 165 170 176 176 168 158 145 155 159 149 152 157 155 169 187 193 194 197 189 201 208 214 130 137 139 152 159 147
190 192 191 191 194 195 194 176 175 169 175 176 175 177 179 174 172 168 167 167 166 168 172 171 168 172 171 165 162 161 175 184 191 176 172 171 171 174 168 159 148 145 157 152 146 165 165 173 179 186 182 195 193 185 196 203 190 157 150 162 170 158 161
187 191 189 189 194 195 194 175 173 172 175 172 178 180 178 173 170 169 167 167 168 170 173 169 169 171 171 174 174 175 183 187 186 177 179 175 171 165 165 157 150 148 152 148 148 142 153 175 185 179 162 181 183 172 165 169 141 150 150 163 172 173 178
186 189 190 190 194 196 194 192 192 185 178 170 176 178 175 171 165 167 169 169 172 170 170 168 168 176 178 180 181 181 183 187 188 184 182 173 168 169 168 158 154 157 160 154 152 154 162 162 159 139 134 129 136 120 98 87 88 91 175 170 177 187 171
186 187 189 191 194 190 188 187 188 192 179 170 176 171 168 168 167 170 173 176 174 174 174 171 170 173 175 180 184 179 181 184 185 186 181 175 167 172 170 170 161 163 166 157 154 161 158 150 136 131 120 117 122 125 152 154 141 151 179 180 161 172 160
189 189 186 188 190 188 185 184 185 192 188 172 171 171 169 170 175 179 180 178 175 174 175 172 175 176 177 175 180 178 177 178 182 183 177 176 175 174 173 170 164 168 170 166 161 150 148 141 132 136 142 147 144 150 150 148 164 166 176 166 159 161 182
185 185 183 182 181 182 181 182 187 193 188 172 171 171 170 167 175 181 180 174 175 174 172 172 173 172 173 176 179 176 172 172 171 173 179 178 175 176 175 168 166 169 173 168 157 158 157 159 162 154 146 141 147 152 151 158 161 155 156 152 159 169 172
183 180 167 157 174 170 171 167 186 195 186 177 177 176 174 177 176 178 173 175 175 168 166 170 173 172 174 175 174 173 170 169 172 171 172 175 173 175 173 168 169 171 173 168 164 168 170 164 143 130 127 147 152 157 160 150 150 154 158 166 171 173 179
179 171 170 173 174 163 164 169 188 193 181 177 174 179 175 175 173 176 170 169 167 168 171 172 173 171 172 174 172 171 172 174 172 171 170 171 173 172 170 167 169 174 172 173 175 161 159 145 150 154 164 166 167 170 161 154 154 162 167 169 165 168 176
175 175 179 179 176 165 166 165 177 183 180 182 176 177 176 176 172 172 166 167 166 167 172 176 173 172 171 168 171 170 170 174 175 170 167 165 168 174 173 170 172 172 172 161 136 144 156 167 174 165 163 174 178 179 163 156 163 174 174 178 179 176 189
176 178 179 171 149 158 167 166 177 182 180 180 176 174 175 174 175 176 168 164 168 173 178 179 167 171 171 165 166 169 170 172 174 172 171 167 168 171 174 176 174 172 164 153 160 170 172 169 170 135 156 185 202 183 165 165 175 178 181 185 173 187 200
174 176 171 165 160 163 160 165 183 190 179 177 173 170 173 176 178 176 172 169 170 175 183 166 166 171 171 170 171 168 169 168 173 177 175 172 168 170 172 174 166 164 176 174 165 175 172 177 164 134 153 182 244 295 308 174 177 177 188 186 181 195 201
176 174 175 175 160 158 175 179 179 175 180 175 168 170 178 176 181 181 177 174 176 178 184 160 168 169 171 173 172 169 173 172 174 177 175 175 172 172 170 169 166 170 161 157 166 169 166 158 120 112 133 150 177 177 166 17 335 296 187 193 190 194 203
173 174 171 157 156 164 175 189 187 180 169 168 174 175 178 180 181 182 183 182 179 177 179 162 168 169 170 172 170 177 174 173 177 176 176 175 172 171 170 173 175 172 166 178 172 157 169 169 160 152 167 186 189 170 143 106 200 259 263 210 203 207 194
174 171 168 160 161 170 186 191 184 182 178 176 174 175 177 180 183 184 183 182 178 172 171 159 168 168 169 168 170 180 175 171 175 173 174 174 174 174 174 176 174 166 165 170 168 183 178 174 168 170 182 184 187 181 184 187 194 190 194 210 210 218 194
169 169 168 160 170 177 185 190 189 185 184 174 173 170 182 187 181 180 182 180 177 175 157 161 167 169 167 168 166 180 174 173 175 172 173 175 178 177 174 168 152 145 173 194 166 172 185 170 176 184 187 184 185 181 187 153 54 325 245 213 208 213 199
173 173 166 172 177 181 187 189 176 163 169 172 170 171 178 190 187 183 179 177 175 174 161 170 170 170 167 165 166 181 169 174 176 174 174 175 178 174 171 162 159 186 190 196 158 171 170 175 190 193 193 186 188 189 194 175 187 215 253 285 304 328 349
174 174 166 176 179 185 188 190 185 176 182 173 179 188 183 190 185 180 173 176 177 171 164 172 172 170 165 167 172 170 167 172 173 177 172 172 176 176 177 170 185 197 186 188 159 171 168 180 201 198 196 188 188 195 194 181 182 181 160 208 224 231 231
171 172 176 169 171 182 188 190 183 171 178 176 181 182 180 183 182 181 183 184 184 181 166 173 174 167 167 169 173 168 168 172 173 177 172 169 175 179 179 186 186 191 190 171 161 171 173 185 202 199 199 199 200 202 201 186 192 199 200 202 202 196 214
179 175 166 174 171 186 187 176 172 179 183 186 181 189 184 181 172 177 182 185 181 190 168 161 174 169 169 172 177 172 169 168 173 171 176 174 174 183 179 183 189 193 188 161 168 173 181 193 204 203 201 207 207 206 192 186 195 212 213 222 221 198 212
171 171 172 174 176 182 174 182 184 176 185 186 182 175 179 173 170 173 177 182 180 179 165 162 172 171 170 174 179 173 169 164 156 161 171 176 184 179 182 190 191 184 183 168 171 179 186 197 210 206 204 212 214 189 165 190 185 203 228 223 221 207 208
169 164 158 154 171 200 199 187 182 178 177 182 180 179 177 174 178 165 159 163 165 154 155 170 156 172 172 177 178 174 164 183 172 161 174 185 183 185 183 182 198 171 177 173 176 181 190 195 206 218 213 216 170 123 179 210 203 198 219 222 223 220 219
171 170 174 185 188 190 186 184 185 184 181 183 179 171 180 176 169 163 156 146 135 131 145 159 159 164 180 177 178 179 178 169 172 182 189 187 185 184 186 188 191 162 173 176 180 184 190 195 192 213 213 202 177 167 178 218 213 215 221 223 221 225 228
181 185 186 175 175 180 184 185 186 185 187 184 181 175 180 176 171 164 157 150 147 147 148 149 173 173 177 181 175 181 186 180 179 199 195 192 185 185 183 186 176 164 174 179 185 187 192 187 196 207 209 198 177 165 206 214 212 221 220 220 220 228 232